• In Moldova, Republic
  • List of Countries
  • For 7 days
  • Water Temperature
  • Satellite Maps
  • Weather Map
  • Weather Widgets
  • user-avatar
    Login

    Hourly Weather Sidi Bu-l-Abbas

    Today, 23 April, Monday

    Time Temperature Precipitation Wind Pressure Humidity
    00:00 +21°C° 0 mm 4 mps 717 mmHg 37%
    01:00 +20°C° 0 mm 4 mps 717 mmHg 37%
    02:00 +20°C° 0 mm 3 mps 717 mmHg 37%
    03:00 +19°C° 0 mm 3 mps 717 mmHg 38%
    04:00 +19°C° 0 mm 3 mps 717 mmHg 42%
    05:00 +19°C° 0 mm 3 mps 717 mmHg 47%
    06:00 +18°C° 0 mm 3 mps 717 mmHg 51%
    07:00 +20°C° 0.1 mm 4 mps 717 mmHg 47%
    08:00 +22°C° 0.1 mm 4 mps 718 mmHg 43%
    09:00 +25°C° 0.1 mm 4 mps 718 mmHg 40%
    10:00 +27°C° 0.1 mm 5 mps 718 mmHg 34%
    11:00 +29°C° 0.1 mm 6 mps 718 mmHg 29%
    12:00 +32°C° 0.1 mm 7 mps 718 mmHg 24%
    13:00 +33°C° 0 mm 8 mps 717 mmHg 23%
    14:00 +33°C° 0 mm 8 mps 717 mmHg 22%
    15:00 +33°C° 0 mm 9 mps 716 mmHg 21%
    16:00 +32°C° 0 mm 7 mps 715 mmHg 26%
    17:00 +29°C° 0 mm 6 mps 715 mmHg 31%
    18:00 +27°C° 0 mm 5 mps 715 mmHg 36%
    19:00 +26°C° 0 mm 5 mps 715 mmHg 42%
    20:00 +23°C° 0 mm 4 mps 715 mmHg 47%
    21:00 +21°C° 0 mm 4 mps 715 mmHg 53%
    22:00 +20°C° 0 mm 3 mps 715 mmHg 54%
    23:00 +19°C° 0 mm 3 mps 716 mmHg 56%

    Tomorrow, 24 April, Tuesday

    Time Temperature Precipitation Wind Pressure Humidity
    00:00 +19°C° 0 mm 3 mps 716 mmHg 57%
    01:00 +18°C° 0 mm 2 mps 716 mmHg 59%
    02:00 +18°C° 0 mm 2 mps 716 mmHg 61%
    03:00 +17°C° 0 mm 2 mps 716 mmHg 63%
    04:00 +17°C° 0 mm 2 mps 716 mmHg 64%
    05:00 +17°C° 0 mm 2 mps 716 mmHg 64%
    06:00 +18°C° 0 mm 1 mps 716 mmHg 64%
    07:00 +19°C° 0 mm 2 mps 717 mmHg 56%
    08:00 +23°C° 0 mm 2 mps 717 mmHg 47%
    09:00 +25°C° 0 mm 2 mps 718 mmHg 39%
    10:00 +26°C° 0 mm 2 mps 718 mmHg 37%
    11:00 +27°C° 0 mm 3 mps 718 mmHg 34%
    12:00 +28°C° 0 mm 3 mps 718 mmHg 32%
    13:00 +28°C° 0.1 mm 3 mps 717 mmHg 35%
    14:00 +27°C° 0.1 mm 3 mps 717 mmHg 37%
    15:00 +27°C° 0.1 mm 3 mps 716 mmHg 40%
    16:00 +25°C° 1 mm 3 mps 716 mmHg 50%
    17:00 +22°C° 1 mm 3 mps 716 mmHg 60%
    18:00 +21°C° 1 mm 3 mps 716 mmHg 70%
    19:00 +20°C° 0.7 mm 3 mps 716 mmHg 75%
    20:00 +19°C° 0.7 mm 3 mps 717 mmHg 79%
    21:00 +18°C° 0.7 mm 2 mps 717 mmHg 84%
    22:00 +18°C° 0.8 mm 3 mps 717 mmHg 84%
    23:00 +18°C° 0.8 mm 3 mps 717 mmHg 84%

    Day after tomorrow, 25 April, Wednesday

    Time Temperature Precipitation Wind Pressure Humidity
    00:00 +18°C° 0.8 mm 3 mps 717 mmHg 84%
    01:00 +17°C° 1.3 mm 3 mps 716 mmHg 85%
    02:00 +17°C° 1.3 mm 3 mps 716 mmHg 87%
    03:00 +17°C° 1.3 mm 3 mps 716 mmHg 88%
    04:00 +16°C° 0.2 mm 3 mps 716 mmHg 89%
    05:00 +16°C° 0.2 mm 3 mps 716 mmHg 90%
    06:00 +16°C° 0.2 mm 2 mps 716 mmHg 90%
    07:00 +17°C° 0.1 mm 3 mps 717 mmHg 85%
    08:00 +18°C° 0.1 mm 4 mps 717 mmHg 80%
    09:00 +17°C° 0.1 mm 5 mps 717 mmHg 75%
    10:00 +17°C° 0.1 mm 5 mps 718 mmHg 76%
    11:00 +17°C° 0.1 mm 5 mps 718 mmHg 76%
    12:00 +17°C° 0.1 mm 5 mps 718 mmHg 77%
    13:00 +17°C° 0 mm 5 mps 718 mmHg 76%
    14:00 +17°C° 0 mm 5 mps 717 mmHg 75%
    15:00 +17°C° 0 mm 5 mps 717 mmHg 74%
    16:00 +17°C° 0 mm 5 mps 717 mmHg 76%
    17:00 +16°C° 0 mm 5 mps 717 mmHg 77%
    18:00 +16°C° 0 mm 5 mps 717 mmHg 79%
    19:00 +15°C° 0.1 mm 4 mps 718 mmHg 82%
    20:00 +16°C° 0.1 mm 3 mps 718 mmHg 85%
    21:00 +15°C° 0.1 mm 2 mps 719 mmHg 88%
    22:00 +15°C° 0 mm 2 mps 719 mmHg 88%
    23:00 +15°C° 0 mm 2 mps 718 mmHg 88%

    26 April, Thursday

    Time Temperature Precipitation Wind Pressure Humidity
    00:00 +14°C° 0 mm 2 mps 718 mmHg 88%
    01:00 +14°C° 0 mm 2 mps 718 mmHg 88%
    02:00 +13°C° 0 mm 3 mps 717 mmHg 88%
    03:00 +13°C° 0 mm 3 mps 717 mmHg 88%
    04:00 +13°C° 0.1 mm 3 mps 717 mmHg 87%
    05:00 +13°C° 0.1 mm 3 mps 717 mmHg 87%
    06:00 +14°C° 0.1 mm 2 mps 717 mmHg 86%
    07:00 +14°C° 0.2 mm 3 mps 717 mmHg 85%
    08:00 +14°C° 0.2 mm 4 mps 718 mmHg 84%
    09:00 +14°C° 0.2 mm 4 mps 718 mmHg 84%
    10:00 +15°C° 0.1 mm 5 mps 718 mmHg 83%
    11:00 +15°C° 0.1 mm 5 mps 718 mmHg 81%
    12:00 +16°C° 0.1 mm 5 mps 718 mmHg 80%
    13:00 +16°C° 0.3 mm 5 mps 718 mmHg 83%
    14:00 +15°C° 0.3 mm 5 mps 718 mmHg 85%
    15:00 +15°C° 0.3 mm 4 mps 718 mmHg 87%
    16:00 +15°C° 0.2 mm 4 mps 718 mmHg 89%
    17:00 +15°C° 0.2 mm 4 mps 718 mmHg 90%
    18:00 +14°C° 0.2 mm 4 mps 718 mmHg 91%
    19:00 +14°C° 0.1 mm 3 mps 719 mmHg 92%
    20:00 +14°C° 0.1 mm 3 mps 719 mmHg 93%
    21:00 +14°C° 0.1 mm 2 mps 720 mmHg 94%
    22:00 +14°C° 0 mm 2 mps 719 mmHg 93%
    23:00 +14°C° 0 mm 2 mps 719 mmHg 93%

    27 April, Friday

    Time Temperature Precipitation Wind Pressure Humidity
    00:00 +14°C° 0 mm 2 mps 719 mmHg 92%
    01:00 +14°C° 0 mm 2 mps 719 mmHg 93%
    02:00 +14°C° 0 mm 2 mps 718 mmHg 93%
    03:00 +13°C° 0 mm 2 mps 718 mmHg 93%
    04:00 +13°C° 0 mm 1 mps 718 mmHg 93%
    05:00 +13°C° 0 mm 1 mps 718 mmHg 92%
    06:00 +13°C° 0 mm 1 mps 718 mmHg 91%
    07:00 +15°C° 0 mm 1 mps 718 mmHg 83%
    08:00 +16°C° 0 mm 1 mps 719 mmHg 75%
    09:00 +19°C° 0 mm 1 mps 719 mmHg 67%
    10:00 +19°C° 0 mm 2 mps 719 mmHg 63%
    11:00 +20°C° 0 mm 2 mps 719 mmHg 60%
    12:00 +21°C° 0 mm 2 mps 719 mmHg 56%
    13:00 +21°C° 0 mm 3 mps 718 mmHg 54%
    14:00 +22°C° 0 mm 3 mps 718 mmHg 53%
    15:00 +22°C° 0 mm 3 mps 717 mmHg 51%
    16:00 +21°C° 0 mm 3 mps 717 mmHg 53%
    17:00 +21°C° 0 mm 2 mps 717 mmHg 55%
    18:00 +20°C° 0 mm 2 mps 717 mmHg 57%
    19:00 +20°C° 0 mm 1 mps 717 mmHg 63%
    20:00 +19°C° 0 mm 1 mps 717 mmHg 69%
    21:00 +16°C° 0 mm 0 mps 718 mmHg 75%
    22:00 +16°C° 0 mm 1 mps 717 mmHg 74%
    23:00 +16°C° 0 mm 1 mps 717 mmHg 74%

    28 April, Saturday

    Time Temperature Precipitation Wind Pressure Humidity
    00:00 +16°C° 0 mm 2 mps 717 mmHg 74%
    01:00 +16°C° 0 mm 2 mps 717 mmHg 74%
    02:00 +16°C° 0 mm 2 mps 716 mmHg 75%
    03:00 +15°C° 0 mm 2 mps 716 mmHg 76%
    04:00 +15°C° 0 mm 2 mps 716 mmHg 76%
    05:00 +15°C° 0 mm 2 mps 716 mmHg 77%
    06:00 +15°C° 0 mm 2 mps 716 mmHg 78%
    07:00 +17°C° 0 mm 3 mps 717 mmHg 72%
    08:00 +18°C° 0 mm 4 mps 717 mmHg 66%
    09:00 +19°C° 0 mm 5 mps 718 mmHg 60%
    10:00 +20°C° 0 mm 6 mps 718 mmHg 59%
    11:00 +20°C° 0 mm 6 mps 718 mmHg 57%
    12:00 +20°C° 0 mm 7 mps 718 mmHg 56%
    13:00 +20°C° 0 mm 7 mps 717 mmHg 57%
    14:00 +20°C° 0 mm 7 mps 717 mmHg 59%
    15:00 +18°C° 0 mm 7 mps 717 mmHg 61%
    16:00 +17°C° 0 mm 7 mps 717 mmHg 64%
    17:00 +16°C° 0 mm 7 mps 717 mmHg 67%
    18:00 +15°C° 0 mm 7 mps 717 mmHg 69%
    19:00 +15°C° 0 mm 7 mps 718 mmHg 70%
    20:00 +14°C° 0 mm 6 mps 718 mmHg 71%
    21:00 +13°C° 0 mm 6 mps 719 mmHg 71%
    22:00 +13°C° 0 mm 5 mps 719 mmHg 73%
    23:00 +12°C° 0 mm 5 mps 719 mmHg 75%
    Show more